Weather in Nizhny Chir

Russia / Volgograd Oblast     48°21′03″N   43°05′06″E
temp.,
°C
wind,
m/s
gust,
m/s
humid.,
%
clouds,
%
prec.,
mm/h
press.,
hPa
HPBL,
m
4 march, thu
thu400:00−2wnw47870 0.0 1021156
03:00−3w46850 0.0 1022128
06:00−3wsw59820 0.0 1021164
09:000wsw812680 0.0 1020510
12:00+3wsw812540 0.0 1019609
15:00+4wsw813550 0.0 1017615
18:00+3sw714630 0.0 1015272
21:00+1sw816720 0.0 1015388
5 march, fri
fri500:00+1sw816840 0.0 1014439
03:00+1sw8178824 0.0 1014467
06:00+2sw9178880 0.0 1013571
09:00+2wsw8158790 0.0 1013466
12:00+4wsw81384100 0.1 1013400
15:00+4wsw71282100 0.1 1013364
18:00+4wsw5991100 0.4 1014235
21:00+3wsw4788100 0.8 1015175
6 march, sat
sat600:00+3ssw5789100 0.4 1015155
03:00+3sw61085100 0.4 1014226
06:00+2ssw61182100 0.0 1012280
09:00+3sw81480100 0.0 1011374
12:00+5sw71286100 0.1 1010332
15:00+4w61091100 0.6 1010344
18:00+1n6984100 0.3 1011438
21:00−1n5882100 0.3 1014531
7 march, sun
sun700:00−2nnw3484100 0.0 1016242
03:00−3wnw469589 0.3 1018243
06:00−4nw81173100 0.3 1019601
09:00−3nw687399 0.3 1021964
12:00−1wnw6860100 0.0 10221314
15:00+1wsw685470 0.0 10211356
18:00−1sw5106129 0.0 1019263
21:00−2sw8156441 0.0 1019517
8 march, mon
mon800:00−2sw8146347 0.0 1018452
03:00−2sw8157224 0.0 1016430
06:00−2sw815730 0.0 1015429
09:00+1wsw10166930 0.0 1014906
12:00+4wsw10155949 0.0 1013882
15:00+4wsw9155675 0.0 1012888
18:00+3wsw61068100 0.0 1013228
21:00+1wsw5108993 0.1 1015241